Regional Weather Roundup
Issued by NWS Wilmington, NC

Home | Current Version | Previous Version | Text Only | Print | Product List | Glossary On
Versions: 1 2 3 4 5 6 7 8 9 10 11 12 13 14 15 16 17 18 19 20 21 22 23 24 25 26 27 28 29 30 31 32 33 34 35 36 37 38 39 40 41 42 43 44 45 46 47 48 49 50
000
ASUS42 KILM 311710
RWRILM
RWRILM
REGIONAL HOURLY WEATHER ROUNDUP
NATIONAL WEATHER SERVICE WILMINGTON NC
100 PM EDT THU JUL 31 2014

NOTE: "FAIR" INDICATES FEW OR NO CLOUDS BELOW 12,000 FEET WITH NO
SIGNIFICANT WEATHER AND/OR OBSTRUCTIONS TO VISIBILITY.

...............WFO WILMINGTON COUNTY WARNING AREA...............

......COASTAL NC AND SC COUNTIES......

CITY           SKY/WX    TMP DP  RH WIND       PRES   REMARKS
WILMINGTON     PTSUNNY   84  67  56 E13G20    30.11S
SOUTHPORT      PTSUNNY   83  69  62 E10G18    30.10F
N MYRTLE BEACH PTSUNNY   85  71  63 E14G22    30.09S HX  90
MYRTLE BEACH   MOSUNNY   86  72  62 E18       30.08F HX  92

......INLAND NC AND SC COUNTIES.......

CITY           SKY/WX    TMP DP  RH WIND       PRES   REMARKS
LUMBERTON      PTSUNNY   86  63  45 MISG      30.10F
ELIZABETHTOWN  PTSUNNY   84  65  52 E9        30.11S
WHITEVILLE     PTSUNNY   85  67  54 E10       30.09F
FLORENCE       PTSUNNY   85  70  60 VRB7      30.09F
DARLINGTON     PTSUNNY   84  66  54 E9        30.10F

....................REST OF NORTH CAROLINA......................

.........EASTERN NC.........

CITY           SKY/WX    TMP DP  RH WIND       PRES   REMARKS
CAPE HATTERAS  NOT AVBL
JACKSONVILLE   PTSUNNY   84  64  51 E9        30.12F
MOREHEAD CITY  MOSUNNY   84  67  56 E9        30.12F
KENANSVILLE    PTSUNNY   83  64  54 E8        30.13S
NEW BERN       MOSUNNY   86  66  51 SE8       30.14S
ELIZABETH CITY MOSUNNY   81  63  54 E7        30.14F

.........CENTRAL NC.........

CITY           SKY/WX    TMP DP  RH WIND       PRES   REMARKS
RALEIGH DURHAM CLOUDY    80  66  62 VRB6      30.14F
ROCKY MOUNT    CLOUDY    81  64  56 MISG      30.14F
ROANOKE RAPIDS NOT AVBL
FAYETTEVILLE   CLOUDY    86  62  44 NE8       30.10F
HOFFMAN        PTSUNNY   83  65  53 SE8       30.13F

.........WESTERN NC.........

CITY           SKY/WX    TMP DP  RH WIND       PRES   REMARKS
CHARLOTTE      CLOUDY    78  67  68 N6        30.14S
GREENSBORO     CLOUDY    77  65  66 S3        30.14F
HICKORY        NOT AVBL
BOONE          NOT AVBL
ASHEVILLE      NOT AVBL

.....................REST OF SOUTH CAROLINA.....................

.........EASTERN SC.........

CITY           SKY/WX    TMP DP  RH WIND       PRES   REMARKS
CHARLESTON     TSTM      78  74  87 W6        30.06R FOG
BEAUFORT MCAS  CLOUDY    80  73  79 E12       30.03S
HILTON HEAD    NOT AVBL

.........CENTRAL SC.........

CITY           SKY/WX    TMP DP  RH WIND       PRES   REMARKS
COLUMBIA       CLOUDY    86  68  54 E12       30.06F
ORANGEBURG     CLOUDY    80  71  74 E7        30.07S
SUMTER SHAW    CLOUDY    84  71  64 E12       30.07S

.........WESTERN SC.........

CITY           SKY/WX    TMP DP  RH WIND       PRES   REMARKS
GREENVILLE     NOT AVBL
ROCK HILL      CLOUDY    78  67  68 VRB3      30.13F
ANDERSON       RAIN      69  68  96 NE8       30.13R FOG
CLEMSON        NOT AVBL
GREENWOOD      CLOUDY    76  68  76 N5        30.11F


...................COASTAL AND OFFSHORE REPORTS..................

................LOCAL PIERS AND NC RESERVE................


STATION/POSITION TIME  SKY/WX   TEMP    WIND        PRES    VSBY
                                AIR SEA DIR/SP/G
                 (UTC)          (F)     (DEG/KT/KT) (MB)    (MI)
JOHNY MRCER PIER 1700            81 83   90/ 14/ 17 1019.1R
NC RESRV MASNBRO 1600            85      70/  4     1019.0S
OCEAN CREST PIER 1700            82 84  100/ 18/ 22 1018.0F
SPRINGMAID  PIER 1700            82 83   70/ 17/ 20 1018.8S


................COASTAL AND OFFSHORE BUOYS................


STATION/POSITION TIME  SKY/WX   TEMP    WIND        PRES    VSBY
                                AIR SEA DIR/SP/G
                 (UTC)          (F)     (DEG/KT/KT) (MB)    (MI)
DIMNDSHOAL 41025 1700                   VRB 10/ 14  1020.2S
WVE H/P(F/S)=  3/ 7 WND WVE H/P(F/S)=  2/ 4 SWL H/P/D(F/S/D)=  3/130/ 7

CAPE LOOKOUT     1600            80      70/ 13/ 14 1019.9F
ONSLOW BAY 41036 1600            81 81   90/ 14/ 16 1019.8F
5 WRITEBCH 41038 1600            78 81  100/ 14/ 16   N/A
MASONBORO  41110 1700               81                N/A
WVE H/P(F/S)=  4/ 7 WND WVE H/P(F/S)=  3/ 7

WILM HARBR 41108 NOT AVBL
27WRITEBCH 41037 1600            78 81   90/ 14/ 16 1019.4R
FRYING PAN 41013 NOT AVBL
SUNST NRSH 41024 1600            84     110/ 14/ 16 1018.8R
CAPRS NRSH 41029 1600            82      90/ 19/ 21   N/A
EDISTO     41004 1700            83 83   80/ 17/ 21 1016.2F
WVE H/P(F/S)=  4/ 5 WND WVE H/P(F/S)=  3/ 5 SWL H/P/D(F/S/D)=  2/ 8



..........OFFSHORE BUOYS BEYOND 100 NM OFFSHORE...........
.....IN A TRIANGLE---HAT TO BERMUDA TO BAHAMAS TO HAT.....


STATION/POSITION TIME  SKY/WX   TEMP    WIND        PRES    VSBY
                                AIR SEA DIR/SP/G
                 (UTC)          (F)     (DEG/KT/KT) (MB)    (MI)
150E HAT   41001 NOT AVBL
W BERMUDA  41048 1642            82 82  160/ 14/ 14 1021.0F
WVE H/P(F/S)=  4/ 6 WND WVE H/P(F/S)=  3/ 6 SWL H/P/D(F/S/D)=  3/140/ 6

ATLANTIC S 41049 1647            82 84   90/ 12/ 14 1020.8F
WVE H/P(F/S)=  3/ 7 WND WVE H/P(F/S)=  2/ 4 SWL H/P/D(F/S/D)=  3/120/ 7

E BAHAMAS  41046 1551            81 83  130/ 12/ 16 1017.7
WVE H/P(F/S)=  5/ 7 WND WVE H/P(F/S)=  3/ 5 SWL H/P/D(F/S/D)=  3/110/ 7

NE BAHAMAS 41047 1621            83 85  140/ 14/ 16 1018.8F
WVE H/P(F/S)=  4/ 6 WND WVE H/P(F/S)=  3/ 6 SWL H/P/D(F/S/D)=  3/120/ 6

120E CANVRL41010 1700            81 84  120/  6/ 16 1016.8S
WVE H/P(F/S)=  2/ 5 WND WVE H/P(F/S)=  2/ 4 SWL H/P/D(F/S/D)=  2/180/ 5


END



USA.gov is the U.S. government's official web portal to all federal, state and local government web resources and services.